CAPE
0 0 0 0 0 0 0 0 0 112 106 98 82 67 9 0 0 0 2 1 2 3 2 2 0 0 0 0 0 0 0 0 0 0 0 0 0 0 0 0 0 0 0 0
0 0 0 0 0 0 0 0 0 30 49 54 29 27 0 0 0 0 0 1 1 4 0 0 0 0 0 0 0 0 0 0 0 0 0 0 0 0 0 0 0 0 0 0
0 0 0 0 0 0 0 0 0 0 29 26 3 3 2 3 2 1 0 1 1 2 3 1 0 0 0 0 0 0 0 0 0 0 0 0 0 0 0 0 0 0 0 0
0 0 0 0 0 0 0 0 0 0 0 0 0 0 2 2 0 2 0 0 0 0 4 1 0 0 0 0 0 0 0 0 0 0 0 0 0 0 0 0 0 0 0 0
0 0 0 0 0 0 0 0 0 0 0 0 1 0 4 0 0 2 0 0 0 2 0 0 0 0 0 0 0 0 0 0 0 0 0 0 0 0 0 0 0 0 0 0
0 0 0 0 0 0 0 0 0 0 0 0 0 5 3 1 14 0 0 0 0 0 0 0 0 0 0 0 0 0 0 0 0 0 0 0 0 0 0 0 0 0 0 0
0 0 0 0 0 0 0 0 0 0 0 0 1 5 35 52 19 1 0 0 0 0 0 0 0 0 0 0 0 0 0 0 0 0 0 0 0 0 0 0 0 0 0 0
0 0 0 0 0 0 0 0 0 0 0 0 24 27 60 78 26 1 0 0 0 0 0 0 0 0 0 0 0 0 0 0 0 0 0 0 0 0 0 0 0 0 0 8
0 0 0 0 0 0 0 0 0 0 0 0 0 5 41 35 7 0 0 0 0 0 0 0 0 0 0 0 0 0 0 0 0 0 0 0 0 0 0 0 0 0 0 0
0 0 0 0 0 0 0 0 0 0 0 0 1 8 46 64 10 0 0 0 0 0 0 0 0 0 0 0 0 0 0 0 0 0 0 0 0 0 0 0 0 0 0 0
0 0 0 0 0 0 0 0 0 0 0 0 3 0 20 23 26 2 0 0 0 0 0 0 0 0 0 0 0 0 0 1 10 4 0 0 0 0 0 0 0 0 0 0
0 0 0 0 0 0 0 0 0 0 0 0 0 0 0 0 0 0 0 0 1 0 0 0 0 0 0 0 0 0 1 7 5 3 0 0 0 1 3 4 0 1 3 1
0 0 0 0 0 0 0 0 0 0 0 0 0 0 0 0 0 2 18 0 0 0 0 0 0 0 0 0 0 1 3 0 0 0 4 1 1 4 4 6 11 15 26 3
0 0 0 0 0 0 0 0 0 0 0 0 0 0 0 0 0 7 0 0 0 0 0 0 0 0 0 0 3 5 3 0 0 1 0 0 0 0 4 2 9 2 0 0
0 0 0 0 0 0 0 0 0 0 0 0 0 0 0 0 1 6 0 0 0 0 0 0 0 0 0 7 7 2 1 1 5 0 0 0 0 0 0 0 0 0 2 0
0 0 0 0 0 0 0 0 0 0 0 0 0 0 0 0 0 0 0 0 0 0 0 0 0 0 5 0 0 0 0 3 0 0 0 0 0 0 0 0 0 1 0 5
0 0 0 0 0 0 0 0 0 0 0 0 0 0 0 0 0 0 0 0 0 0 0 0 0 0 3 0 4 2 11 3 0 0 0 0 0 0 1 0 0 0 0 0
0 0 0 0 0 0 0 2 0 0 0 0 0 0 0 0 0 0 0 0 0 0 0 0 0 0 0 1 3 4 1 0 0 1 0 0 0 0 0 0 0 2 2 5
0 0 0 0 0 0 0 5 0 1 0 0 0 0 0 0 0 0 0 0 0 0 0 0 0 0 0 0 1 1 0 0 1 0 0 0 0 0 0 0 0 0 1 0
0 0 0 0 0 0 0 0 1 0 0 0 0 0 0 0 0 0 0 0 0 0 0 0 0 0 0 0 2 1 0 0 0 0 0 0 0 0 0 0 0 0 0 0
1 0 0 0 0 0 0 0 0 0 0 0 0 0 0 0 0 0 0 0 0 0 0 0 0 0 0 1 0 0 0 0 0 0 0 0 0 0 0 0 0 0 0 0
0 0 0 0 0 0 0 0 0 0 0 0 0 0 0 0 0 0 0 0 0 0 0 0 0 0 0 0 0 0 0 0 0 0 0 0 0 0 0 0 0 0 0 0
0 0 0 0 0 0 0 0 0 0 0 0 0 0 0 0 0 0 0 1 0 0 0 0 0 0 0 0 0 0 0 0 0 0 0 0 0 0 0 0 0 0 0 0
0 0 0 0 0 0 0 0 0 0 0 0 0 0 0 0 0 0 0 4 3 0 0 0 0 0 0 0 0 0 0 0 0 0 0 0 0 0 0 0 0 0 0 0
0 0 0 0 0 0 0 0 0 0 0 0 0 0 0 0 0 0 8 2 0 0 1 0 0 0 0 0 0 0 0 0 0 0 0 0 0 0 0 0 0 0 0 0
0 0 0 0 0 0 0 0 0 0 0 0 0 0 0 0 0 5 0 0 0 0 0 0 0 0 1 0 0 0 0 0 0 0 0 0 0 0 0 0 0 0 0 0
CIN
-0 -0 -0 -0 -0 -0 -0 -0 -0 -305 -301 -301 -255 -244 -290 -1 -0 -0 -0 -2 -0 -1 -0 -0 -0 -0 -0 -0 -0 -0 -0 -0 -0 -0 -0 -0 -0 -0 -0 -0 -0 -0 -0 -0
-0 -0 -0 -0 -0 -0 -0 -0 -0 -324 -315 -310 -256 -203 -0 -0 -0 -0 -0 -0 -0 -2 -0 -0 -0 -0 -0 -0 -0 -0 -0 -0 -0 -0 -0 -0 -0 -0 -0 -1 -0 -0 -0 -0
-0 -0 -0 -0 -0 -0 -0 -0 -0 -0 -294 -264 -121 -0 -0 -0 -98 -0 -0 -0 -3 -11 -21 -36 -0 -0 -0 -0 -0 -0 -0 -0 -0 -0 -0 -0 -0 -0 -0 -0 -0 -0 -0 -0
-0 -0 -0 -0 -0 -0 -0 -0 -0 -0 -4 -0 -0 -0 -5 -0 -0 -139 -0 -0 -0 -24 -29 -40 -0 -0 -0 -0 -0 -0 -0 -0 -0 -0 -0 -0 -0 -0 -0 -0 -0 -0 -0 -0
-0 -0 -0 -0 -0 -0 -0 -0 -0 -0 -0 -0 -85 -0 -1 -0 -2 -99 -8 -0 -0 -37 -0 -0 -0 -0 -0 -0 -0 -0 -0 -0 -0 -0 -0 -0 -0 -0 -0 -0 -0 -0 -0 -0
-0 -0 -0 -0 -0 -0 -0 -0 -0 -0 -0 -0 -0 -93 -26 -0 -32 -12 -4 -0 -0 -0 -0 -0 -0 -0 -0 -0 -0 -0 -0 -0 -0 -0 -0 -0 -0 -0 -0 -0 -0 -0 -0 -0
-0 -0 -0 -0 -0 -0 -0 -0 -0 -0 -0 -0 -37 -80 -85 -64 -120 -85 -0 -0 -0 -0 -0 -0 -0 -0 -0 -0 -0 -0 -0 -0 -0 -0 -0 -0 -0 -0 -0 -0 -0 -0 -0 -0
-0 -0 -0 -0 -0 -0 -0 -0 -0 -0 -0 -0 -131 -69 -101 -136 -176 -59 -0 -0 -0 -0 -0 -0 -0 -0 -0 -0 -0 -0 -0 -0 -0 -0 -0 -0 -0 -0 -0 -0 -0 -0 -0 -54
-0 -0 -0 -0 -0 -0 -0 -0 -0 -0 -0 -0 -0 -88 -153 -183 -136 -0 -0 -0 -0 -0 -0 -0 -0 -0 -0 -0 -0 -0 -0 -0 -0 -0 -0 -0 -0 -0 -0 -0 -0 -0 -0 -0
-0 -0 -0 -0 -0 -0 -0 -0 -0 -0 -0 -0 -29 -59 -55 -85 -100 -18 -0 -0 -0 -0 -0 -0 -0 -0 -0 -0 -0 -0 -0 -0 -0 -0 -0 -0 -0 -0 -0 -0 -0 -0 -0 -0
-0 -0 -0 -0 -0 -0 -0 -0 -0 -0 -0 -0 -9 -0 -90 -85 -43 -26 -0 -0 -0 -0 -0 -0 -0 -0 -0 -0 -0 -0 -0 -59 -54 -66 -0 -0 -0 -0 -0 -0 -0 -0 -0 -0
-0 -0 -0 -0 -0 -0 -0 -0 -0 -0 -0 -0 -0 -0 -0 -0 -0 -0 -0 -0 -73 -0 -0 -0 -0 -0 -0 -0 -0 -0 -57 -43 -53 -78 -0 -0 -0 -70 -55 -47 -0 -68 -43 -37
-0 -0 -0 -0 -0 -0 -0 -0 -0 -0 -0 -0 -0 -0 -0 -0 -0 -32 -30 -0 -0 -0 -0 -0 -0 -0 -0 -0 -0 -53 -56 -27 -0 -18 -72 -20 -13 -48 -42 -30 -20 -20 -18 -28
-0 -0 -0 -0 -0 -0 -0 -0 -0 -0 -0 -0 -0 -3 -0 -0 -0 -29 -0 -0 -0 -0 -0 -0 -0 -0 -0 -0 -49 -47 -50 -0 -0 -21 -0 -0 -0 -0 -21 -15 -4 -6 -0 -0
-0 -0 -0 -0 -0 -0 -0 -0 -0 -0 -0 -0 -0 -0 -0 -0 -40 -100 -0 -0 -0 -0 -0 -0 -0 -0 -0 -37 -32 -38 -37 -45 -28 -6 -0 -0 -0 -0 -0 -0 -1 -2 -6 -0
-0 -0 -0 -0 -0 -0 -0 -0 -0 -0 -0 -0 -0 -0 -0 -0 -0 -0 -0 -0 -0 -0 -0 -0 -0 -0 -19 -16 -0 -0 -0 -15 -5 -0 -0 -0 -0 -0 -0 -0 -0 -18 -1 -10
-0 -0 -0 -0 -0 -0 -0 -0 -0 -0 -0 -0 -0 -0 -0 -0 -0 -0 -0 -0 -0 -0 -0 -0 -0 -0 -16 -4 -18 -12 -5 -16 -0 -0 -0 -0 -0 -0 -0 -0 -0 -0 -0 -0
-0 -0 -0 -0 -0 -0 -0 -35 -19 -0 -0 -0 -0 -0 -0 -0 -0 -0 -0 -0 -0 -0 -0 -0 -0 -0 -4 -34 -26 -19 -16 -2 -0 -17 -0 -0 -0 -0 -0 -0 -3 -17 -18 -15
-0 -0 -0 -0 -0 -0 -0 -16 -7 -7 -0 -0 -0 -0 -0 -0 -0 -0 -0 -0 -0 -0 -0 -0 -0 -0 -11 -7 -23 -21 -0 -0 -24 -0 -0 -0 -0 -0 -0 -0 -0 -0 -0 -0
-0 -0 -0 -0 -0 -0 -0 -5 -33 -0 -0 -0 -0 -0 -0 -0 -0 -0 -0 -0 -0 -0 -0 -0 -3 -0 -0 -0 -29 -24 -0 -0 -0 -0 -0 -0 -0 -0 -0 -0 -0 -0 -0 -0
-5 -0 -0 -0 -0 -0 -0 -0 -0 -0 -0 -0 -0 -0 -0 -0 -0 -0 -0 -0 -0 -0 -0 -0 -0 -0 -14 -19 -0 -0 -0 -0 -0 -0 -0 -0 -0 -0 -0 -0 -0 -0 -0 -0
-0 -0 -0 -0 -0 -0 -0 -0 -0 -0 -0 -0 -0 -0 -0 -0 -0 -0 -0 -0 -24 -0 -0 -0 -0 -0 -0 -0 -0 -0 -0 -0 -0 -0 -0 -0 -0 -0 -0 -0 -0 -0 -0 -0
-0 -0 -0 -0 -0 -0 -0 -0 -0 -0 -0 -0 -0 -0 -0 -0 -0 -0 -3 -39 -0 -0 -0 -1 -0 -0 -0 -0 -0 -0 -0 -0 -3 -0 -0 -0 -0 -0 -0 -0 -0 -0 -0 -0
-0 -0 -0 -0 -0 -0 -0 -0 -0 -0 -0 -0 -0 -0 -0 -0 -0 -0 -52 -48 -40 -0 -0 -0 -0 -0 -1 -34 -0 -0 -0 -0 -0 -0 -0 -0 -0 -0 -0 -0 -0 -0 -0 -0
-0 -0 -0 -0 -0 -0 -0 -0 -0 -0 -0 -0 -0 -0 -0 -0 -0 -25 -45 -44 -0 -16 -34 -0 -0 -0 -0 -0 -0 -0 -0 -0 -0 -0 -0 -0 -0 -0 -0 -0 -0 -0 -0 -0
-0 -0 -0 -0 -0 -0 -0 -0 -0 -0 -0 -0 -0 -0 -0 -0 -0 -59 -63 -0 -0 -21 -0 -0 -0 -0 -34 -0 -0 -0 -0 -0 -0 -0 -0 -0 -0 -0 -0 -0 -0 -0 -0 -0
Wind_Speed
16 14 16 16 17 16 17 18 18 17 19 22 18 18 18 19 20 19 19 20 21 22 22 23 24 24 25 25 26 26 26 26 27 26 26 26 28 29 28 29 33 33 32 34
17 16 15 16 18 19 18 18 19 21 19 19 18 19 19 19 19 17 19 20 20 21 21 23 24 24 25 25 25 27 28 26 27 27 27 26 27 25 30 28 31 32 32 32
17 16 16 17 18 20 21 21 17 19 19 17 17 19 18 18 18 18 19 20 20 20 21 22 23 24 24 25 26 26 28 28 29 28 29 30 29 27 27 31 33 32 33 34
19 17 18 19 21 21 26 20 17 16 19 21 15 22 16 14 16 16 17 18 18 19 20 21 22 23 25 25 24 24 28 31 29 30 32 32 30 31 29 30 30 33 32 31
15 17 19 22 23 21 22 15 16 15 22 21 15 21 18 14 16 16 17 16 17 18 19 21 22 24 25 25 26 28 30 29 30 32 31 30 30 29 30 31 32 31 30 29
16 18 20 20 20 23 19 20 20 20 20 25 20 20 20 16 16 15 14 15 16 18 18 21 22 24 25 26 27 28 28 29 30 31 31 31 30 31 33 33 32 31 30 29
17 20 20 24 24 23 25 25 27 26 28 26 22 22 22 16 15 13 11 13 15 16 17 22 25 25 25 27 28 28 30 32 31 32 32 32 31 32 34 35 33 32 30 29
16 19 22 26 25 26 26 26 27 28 29 26 24 25 24 14 16 15 15 15 15 17 17 20 25 24 25 27 28 30 32 32 32 31 31 31 31 32 33 32 31 30 29 28
17 18 18 25 29 27 27 29 22 25 24 25 25 23 19 15 16 15 15 16 17 16 17 21 24 23 26 28 30 31 31 32 31 31 32 31 32 32 32 32 29 27 27 26
18 19 20 22 25 29 26 23 27 27 29 31 25 25 25 19 16 14 15 15 17 18 20 21 21 26 27 29 30 31 32 31 30 32 31 29 29 30 30 31 30 28 26 25
20 20 22 23 28 29 29 27 26 24 25 27 28 26 25 24 16 14 15 17 18 19 21 22 24 27 27 29 32 33 32 31 31 31 29 28 29 30 30 29 28 27 25 24
21 21 27 24 22 25 27 27 26 27 25 23 23 24 23 22 21 18 21 20 20 21 22 24 25 27 30 33 33 32 32 32 30 28 29 29 29 31 30 29 29 26 24 23
20 24 26 26 21 25 28 25 23 21 21 23 25 24 22 21 22 22 21 21 21 22 23 24 26 30 32 32 31 31 30 30 28 27 28 29 30 30 29 28 26 23 20 20
19 23 23 24 23 21 23 26 24 23 24 24 23 23 24 23 23 22 21 22 23 23 25 27 31 32 30 29 29 28 28 28 26 26 28 29 29 29 27 26 22 24 22 19
22 24 21 22 21 20 22 24 27 26 24 25 24 25 23 23 23 21 21 22 23 25 28 32 33 32 29 28 28 27 26 26 24 26 25 27 29 27 24 20 12 10 8 10
23 20 19 22 20 20 22 22 23 23 23 23 23 24 20 22 22 23 23 24 26 28 31 32 32 31 30 29 27 26 20 22 23 23 21 22 24 26 16 12 11 10 11 12
20 20 20 20 17 21 21 23 22 21 21 22 25 23 19 22 23 23 24 25 27 29 30 30 30 29 28 27 26 27 23 22 22 18 19 19 19 16 11 9 9 11 12 11
18 19 20 19 20 21 18 20 18 18 18 19 20 21 20 20 21 22 22 23 24 27 28 28 27 27 26 26 12 8 18 16 14 17 17 17 17 15 13 13 14 13 12 12
18 18 21 21 21 19 17 17 18 19 21 18 19 19 19 19 20 22 21 21 24 24 24 24 25 23 23 9 4 10 14 9 14 16 14 14 14 14 16 15 15 15 16 15
18 20 21 21 22 21 17 17 19 18 21 20 18 18 18 18 23 21 21 22 24 23 23 23 24 23 17 10 4 8 7 9 13 14 14 15 15 15 15 15 16 16 16 16
17 20 21 20 20 16 15 19 19 25 22 19 19 18 17 18 19 20 21 21 21 22 22 23 24 21 7 6 5 9 7 6 11 14 16 16 14 13 14 14 15 15 15 15
17 18 20 19 20 21 19 20 22 18 18 19 20 19 18 18 19 19 19 20 21 23 22 23 21 13 7 6 6 6 4 6 8 10 12 11 11 12 12 13 14 15 17 20
17 16 18 16 17 16 17 18 19 18 19 18 19 19 19 19 19 18 19 19 20 18 19 20 19 6 7 6 5 4 4 4 5 8 8 12 12 12 13 15 16 20 22 21
17 16 17 17 16 16 18 18 18 18 19 19 19 19 19 19 18 19 17 17 18 18 19 21 19 8 8 8 7 6 5 5 5 8 11 14 15 17 20 22 21 23 20 17
16 15 16 16 16 17 15 15 16 18 19 20 19 19 19 18 19 18 18 19 19 19 20 20 9 9 9 8 7 6 5 5 6 12 16 19 19 21 19 19 19 19 20 19
14 15 16 18 16 16 15 13 14 17 17 18 19 20 19 19 19 20 21 20 19 18 18 10 9 10 11 9 7 6 4 7 11 15 17 16 15 15 15 14 14 16 15 13
Wind_Direction
356 16 23 30 26 30 21 21 18 23 4 7 16 16 15 15 18 22 24 25 21 17 16 12 7 4 5 10 10 11 9 10 4 359 348 337 327 325 324 324 322 320 322 322
20 19 30 43 31 32 30 23 13 3 10 11 14 10 14 16 21 22 19 14 12 11 12 10 10 9 10 11 10 6 2 2 3 357 350 345 335 335 327 327 331 328 324 323
38 21 52 36 24 15 9 4 7 3 7 23 25 6 7 14 15 12 8 6 5 7 5 5 5 6 7 5 3 2 1 1 357 350 345 339 337 332 333 327 323 327 323 322
23 27 29 20 9 4 352 11 25 31 3 352 5 350 359 8 4 8 5 4 5 3 6 6 7 9 8 7 7 4 357 351 352 351 345 340 338 334 334 331 329 326 327 327
37 19 3 1 0 2 4 31 20 13 357 0 1 352 355 359 352 355 356 2 1 360 4 6 8 7 5 7 4 0 355 354 351 348 348 345 341 339 337 335 332 333 332 332
24 15 7 7 11 5 16 8 2 360 355 344 349 345 345 350 351 355 3 6 2 2 9 7 5 4 1 2 359 358 357 355 352 349 348 347 345 342 339 337 335 334 334 334
24 6 12 5 358 2 355 353 345 341 338 338 348 347 347 352 357 2 4 5 6 4 8 359 359 358 359 358 358 359 355 351 349 348 348 347 345 342 340 338 337 335 333 334
15 358 359 359 3 357 357 356 347 341 341 342 349 343 348 3 3 4 5 11 7 359 5 2 358 359 1 1 359 356 355 352 350 350 349 347 346 343 341 340 339 339 336 337
11 7 11 4 2 3 355 350 3 352 350 344 346 350 352 356 357 2 358 6 7 10 4 357 0 4 360 358 357 354 353 352 353 352 349 349 348 346 345 344 342 340 340 341
7 359 4 360 1 3 3 5 349 350 343 339 346 346 346 356 1 6 1 7 6 5 359 360 4 360 358 356 354 355 353 353 354 354 353 354 353 352 350 348 347 344 345 345
0 360 354 355 354 352 353 354 355 354 349 343 344 348 360 2 17 14 11 7 4 4 3 2 359 358 357 356 354 354 355 356 355 357 0 1 359 357 355 354 354 353 352 350
1 357 347 352 359 7 4 357 356 352 354 357 356 357 8 8 11 15 6 8 7 7 5 3 4 2 357 355 356 358 359 358 1 3 4 4 3 359 356 355 352 354 355 352
2 355 349 347 355 357 357 7 11 12 11 3 358 1 13 14 12 7 8 9 9 7 7 6 3 358 356 358 0 2 5 7 9 11 12 10 7 5 2 359 358 360 4 1
11 0 357 352 356 4 8 10 16 17 12 10 10 7 8 9 9 8 13 11 9 9 5 1 357 355 359 3 5 10 11 14 17 22 18 17 16 15 15 14 24 14 4 6
4 358 6 10 17 22 21 18 16 18 20 12 12 8 11 12 8 13 15 13 9 6 2 358 357 359 4 7 11 14 17 21 29 29 33 30 26 32 40 54 79 91 128 146
9 10 18 10 24 30 23 21 21 21 21 20 15 10 18 19 21 17 14 12 6 3 0 0 3 3 7 11 16 20 35 39 44 48 50 51 54 53 73 86 95 104 116 137
11 17 13 12 31 12 11 20 27 26 25 19 12 14 22 15 14 15 14 11 7 5 4 5 8 12 15 20 26 23 50 59 62 68 69 75 72 70 75 97 109 112 116 125
20 20 18 17 19 14 31 32 35 32 28 26 21 19 19 19 22 20 21 19 17 13 12 15 17 22 29 30 301 102 80 87 88 86 85 84 80 77 81 91 99 109 116 120
25 25 17 17 16 24 34 37 34 23 14 24 21 22 24 26 23 20 24 25 20 20 23 27 28 37 39 293 246 118 104 111 100 92 94 90 88 89 88 95 101 106 110 113
15 16 19 22 17 17 39 36 27 26 18 28 26 23 23 22 11 15 21 20 21 27 32 32 33 42 35 297 207 138 136 127 108 101 96 96 99 100 98 102 105 107 110 111
15 14 20 25 26 39 45 31 34 19 18 28 27 27 28 22 22 26 27 30 36 35 34 39 39 57 272 258 196 147 147 136 118 109 105 103 105 109 109 109 111 112 110 111
21 22 23 29 25 22 32 31 24 31 35 32 30 31 32 33 32 33 38 36 32 31 40 42 54 98 271 271 193 170 176 152 140 124 120 118 118 117 118 115 114 117 114 111
15 31 28 45 34 41 35 35 38 41 36 38 35 37 40 37 33 40 36 37 39 57 61 54 67 222 262 259 256 217 251 224 163 137 133 127 126 124 122 120 121 117 116 114
19 33 29 34 36 32 31 35 39 42 41 42 43 45 41 37 46 41 52 55 53 51 48 48 77 248 261 256 250 212 237 248 179 148 130 125 126 123 118 115 117 118 117 114
21 32 28 29 30 26 27 33 44 41 45 44 48 45 43 51 49 54 51 42 41 41 34 28 241 236 233 238 245 225 224 245 168 140 127 123 124 123 122 119 118 120 118 116
26 25 24 24 35 30 35 54 54 47 46 50 49 44 53 56 53 53 49 51 55 62 64 253 231 227 214 229 212 198 201 170 154 140 133 130 128 130 127 122 122 126 125 125